Starlink 31204

operational
NORAD ID: 58731 Int'l Des: 2024-005 Owner: SPXS Country: US Constellation: starlink
LEOCIRCULAR

关于 Starlink 31204

正在加载描述...

实时位置

正在加载3D地球...

即将过境

高度历史

Altitude vs Time

uPlot chart will show altitude changes over time

两行轨道根数

1 58731U 24005D 25255.55354214 .04742848 90238-5 16765-2 0 9994
2 58731 42.9836 42.6505 0031709 316.2913 43.5463 16.22636806 94407
Epoch: Sep 12, 2025 • Age: 72 hours

当前状态

高度 135.8 km
速度 7.83 km/s
星下点 -3.50°S, 170.98°W
发射日期 Jan 7, 2024
运行时间 1.6 years
衰减日期 Sep 13, 2025
类型 internet

技术详情

分类 Payload
质量 730.00 kg
干质量 700.00 kg
总质量 730.00 kg
长度 0.30 m
直径 4.10 m
跨度 29.00 m
形状 Box + pan
制造商 SPXS
平台类型 Starlink V2M
阶段状态 Reentered
所有者/国家 SPXS/US

大型星座

Loading constellations...